RH
25 20 16 17 22 32 35 42 52 50 46 41 37 34 22 12 16 19 20 15 14 33 78 96 96 93 95 98 98 93 66 79
31 21 17 17 20 30 32 35 56 55 56 52 46 46 32 13 16 20 20 19 14 30 64 97 98 93 94 95 96 96 70 55
30 25 18 19 18 25 27 34 55 58 66 64 53 54 39 14 16 18 20 17 14 52 82 88 97 97 92 83 94 100 84 77
29 26 20 17 21 25 28 25 44 63 68 68 61 57 45 15 17 20 21 16 14 40 74 87 96 97 96 93 89 94 94 98
21 23 20 16 16 19 25 20 42 66 74 67 62 58 43 15 17 21 21 16 14 35 63 87 94 97 96 96 95 87 92 92
19 14 16 13 11 15 20 17 36 61 68 63 62 60 47 16 16 23 22 17 14 31 70 84 97 97 98 97 98 96 95 86
18 11 12 12 16 16 19 16 30 63 64 60 64 62 47 19 14 23 22 22 14 28 66 70 97 96 99 98 97 98 99 98
20 13 13 22 34 25 19 17 48 66 64 70 62 61 50 20 12 20 21 23 15 42 52 92 96 96 97 96 97 97 97 97
25 20 19 26 27 20 16 17 64 71 70 68 62 68 48 17 10 14 19 27 30 55 56 94 97 96 95 96 97 97 98 96
23 20 19 18 21 18 15 16 48 76 72 70 71 77 44 12 9 10 18 31 36 51 63 94 96 96 97 97 96 97 96 92
22 21 19 17 17 16 16 14 31 64 69 67 82 84 37 12 9 10 15 20 48 50 70 95 99 96 98 96 97 97 94 96
16 16 16 15 13 10 12 16 42 71 75 89 92 78 29 12 10 13 12 16 20 43 77 88 94 97 96 97 96 95 96 91
15 15 13 11 11 14 16 32 63 88 85 100 94 65 29 14 11 14 13 14 14 14 54 70 86 96 96 96 96 90 97 96
14 12 11 11 12 26 32 60 62 78 89 99 93 73 24 14 12 14 13 14 17 12 16 64 98 87 96 96 78 92 97 96
13 12 10 13 20 35 45 60 70 77 94 98 95 77 25 15 13 14 15 13 19 15 13 28 60 87 96 93 96 98 92 86
15 11 10 17 32 39 77 70 68 76 88 97 91 75 32 17 16 20 18 16 14 22 20 15 15 42 88 90 74 76 78 86
18 14 11 11 31 37 62 81 87 97 98 97 89 76 44 21 18 19 20 18 17 14 21 24 23 22 40 58 63 76 100 95
38 41 35 16 26 43 56 73 80 89 96 96 92 70 60 28 24 24 21 19 17 15 13 14 18 24 28 27 26 26 26 26
62 72 80 84 64 86 69 77 98 99 94 96 94 84 87 71 33 29 25 22 22 25 25 24 21 16 15 17 23 29 31 39
Wind_Speed
43 44 43 39 33 36 34 27 24 24 25 28 27 30 29 26 25 24 26 20 23 23 27 32 21 30 31 29 39 41 37 37
44 46 44 41 35 36 34 32 28 25 25 29 29 32 31 28 25 25 26 23 22 23 26 27 29 29 34 35 38 44 40 40
47 47 44 41 38 34 35 36 31 26 28 30 30 32 30 29 27 26 26 23 21 25 21 26 32 31 36 35 39 39 41 37
46 46 45 41 39 35 36 38 36 31 31 29 31 32 31 29 27 26 27 23 21 25 25 28 36 42 35 37 42 43 40 41
43 44 46 43 40 38 37 39 39 37 34 31 32 32 30 29 27 26 27 24 21 22 23 24 19 38 44 37 36 42 43 41
41 43 45 42 38 37 36 40 42 40 36 32 33 33 31 30 28 26 28 24 21 20 20 27 25 28 48 48 41 41 44 46
39 41 40 38 36 37 37 40 42 43 37 35 35 33 31 31 30 28 27 25 21 20 21 28 40 32 46 46 44 43 42 46
40 42 41 38 37 40 37 41 42 44 37 38 37 34 31 32 31 30 27 24 21 22 20 25 30 37 43 51 45 44 42 44
42 44 44 39 39 39 37 41 42 44 39 42 40 33 30 32 31 28 25 20 20 21 20 20 26 31 36 45 42 40 43 47
38 39 40 38 39 39 37 40 44 46 44 43 40 33 30 31 27 23 21 18 20 20 19 19 24 27 37 44 46 35 43 54
36 36 38 37 38 39 37 39 45 47 46 41 37 34 29 29 25 17 20 18 19 17 24 21 27 28 34 47 45 46 43 46
37 35 36 38 36 36 35 41 45 47 41 41 35 32 29 27 24 15 17 17 14 17 17 8 14 30 35 49 43 35 39 34
31 31 32 36 33 34 37 42 45 44 42 40 33 30 29 26 24 16 16 16 14 14 14 8 5 17 26 19 26 17 30 26
32 30 30 35 32 35 40 41 45 44 46 40 35 30 30 27 24 17 16 16 15 15 12 11 13 8 16 23 18 14 21 24
34 31 28 35 35 36 40 42 42 46 46 40 34 30 30 27 26 18 17 12 16 16 15 16 18 16 15 12 14 17 16 18
35 36 30 33 37 37 34 39 44 46 47 41 35 31 30 28 27 21 20 13 13 17 16 16 17 22 22 21 20 23 21 21
33 36 32 31 33 38 36 37 34 43 46 41 36 33 32 31 28 25 22 19 14 13 17 15 14 15 20 22 22 24 26 27
30 32 31 30 33 32 35 36 37 38 46 43 39 37 35 33 29 26 24 22 19 18 15 16 17 17 17 19 21 23 24 25
32 30 29 24 26 26 29 34 49 49 44 42 41 38 36 36 32 29 26 24 23 22 20 19 19 20 21 23 24 26 27 26
Wind_Direction
258 259 262 264 263 262 264 263 258 265 272 278 286 291 290 291 288 284 274 267 260 263 264 252 251 226 221 219 213 212 209 209
255 258 261 264 262 260 263 263 258 262 269 278 282 293 290 288 284 283 277 268 262 266 264 255 238 225 220 221 213 214 214 215
253 257 259 263 265 262 263 262 258 257 265 272 278 288 289 286 281 282 281 269 260 258 266 279 231 216 217 222 215 215 217 220
254 255 258 260 264 263 263 263 262 259 263 269 276 284 286 283 279 281 281 267 256 256 267 275 236 230 225 220 220 219 227 230
251 251 254 258 258 259 257 257 257 260 262 266 272 281 282 277 273 278 279 266 259 256 267 268 240 231 230 220 228 225 226 230
250 248 249 253 254 256 255 254 251 254 258 263 267 274 279 276 269 273 278 268 259 257 268 269 241 239 228 229 230 230 229 228
243 244 245 247 251 255 253 252 251 251 252 257 263 270 276 276 270 266 275 270 255 255 265 262 242 237 214 222 221 231 229 223
241 241 240 249 253 252 248 248 246 249 247 252 259 267 273 276 273 264 271 268 252 253 260 250 244 218 211 216 219 226 223 218
240 243 245 249 249 254 249 242 241 246 244 252 257 267 272 277 273 267 268 272 251 259 252 246 240 217 213 210 216 219 220 222
240 245 249 248 247 253 247 240 236 243 246 253 255 265 268 275 271 267 266 273 256 264 252 234 222 217 214 208 208 209 221 229
239 243 249 248 249 251 249 241 234 240 244 249 254 262 262 269 267 273 266 270 263 265 257 235 224 220 213 210 211 207 224 232
239 241 247 250 249 248 241 235 233 238 242 248 252 257 257 262 265 274 272 263 264 262 260 206 214 221 211 205 208 227 239 231
241 243 244 248 246 241 234 233 232 235 238 243 247 252 251 257 260 269 277 257 250 254 229 193 173 228 199 219 226 224 229 248
253 251 245 245 242 235 235 236 234 234 235 238 238 245 248 251 256 261 270 263 235 232 229 218 183 224 208 220 198 210 235 239
258 252 245 241 239 237 241 238 234 232 236 235 236 242 245 250 255 254 268 273 236 229 218 214 220 228 198 210 209 206 226 232
263 262 250 238 238 239 242 243 241 236 236 234 231 238 242 244 249 252 259 267 243 232 226 219 212 222 217 230 227 235 233 235
262 261 257 244 240 239 241 235 244 242 236 231 232 236 241 243 245 248 256 264 264 251 243 234 224 220 222 233 239 238 229 239
251 258 257 252 242 243 244 236 243 245 227 228 233 233 238 243 246 249 252 258 268 266 262 258 257 255 250 246 246 246 250 255
244 248 240 240 241 233 243 240 218 205 227 229 238 239 243 245 245 246 250 249 251 257 260 264 266 264 261 262 263 265 265 261